Regional Weather Roundup
Issued by NWS

Home | Current Version | Previous Version | Graphics & Text | Print | Product List | Glossary On
Versions: 1 2 3 4 5 6 7 8 9 10 11 12 13 14 15 16 17 18 19 20 21 22 23 24 25 26 27 28 29 30 31 32 33 34 35 36 37 38 39 40 41 42 43 44 45 46 47 48 49 50
000
ASUS43 KBIS 130410
RWRND

NORTH DAKOTA REGIONAL WEATHER ROUNDUP
NATIONAL WEATHER SERVICE BISMARCK ND
1000 PM CST FRI FEB 12 2016

NOTE: "FAIR" INDICATES FEW OR NO CLOUDS BELOW 12,000 FEET WITH NO
SIGNIFICANT WEATHER AND/OR OBSTRUCTIONS TO VISIBILITY.


NDZ001>003-009>011-017-130500-
NORTHWEST NORTH DAKOTA

CITY           SKY/WX    TMP DP  RH WIND       PRES   REMARKS
WILLISTON      CLOUDY    12   2  64 SE10      30.38F WCI  -1
MINOT          CLOUDY     4  -7  60 SE9       30.50F WCI -10
MINOT AFB      CLOUDY    -2  -7  78 CALM      30.49F
$$

NDZ018>021-031>035-040>046-130500-
SOUTHWEST NORTH DAKOTA

CITY           SKY/WX    TMP DP  RH WIND       PRES   REMARKS
BISMARCK       CLOUDY     2  -5  72 E8        30.55R WCI -12
DICKINSON      CLOUDY    10   3  73 SE18      30.31F WCI  -8
GARRISON         N/A      2  -4  76 SE9       30.46F WCI -13
HETTINGER ARPT LGT SNOW  11   6  81 SE16      30.36F WCI  -6
$$

NDZ004>008-012>016-024-026-027-054-130500-
NORTHEAST NORTH DAKOTA

CITY           SKY/WX    TMP DP  RH WIND       PRES   REMARKS
GRAND FORKS    CLOUDY    -6 -13  71 NW3       30.67F
GRND FRKS AFB  CLOUDY    -8 -14  74 N2        30.65F
DEVILS LAKE    CLOUDY   -17 -22  78 CALM      30.59F
$$

NDZ022-023-025-028>030-036>039-047>053-130500-
SOUTHEAST NORTH DAKOTA

CITY           SKY/WX    TMP DP  RH WIND       PRES   REMARKS
FARGO          CLOUDY    -5 -13  68 N5        30.67F WCI -16
JAMESTOWN      CLOUDY    -9 -13  83 CALM      30.59S
$$




USA.gov is the U.S. government's official web portal to all federal, state and local government web resources and services.